| time (UTC) | temp F | wind direction | speed knots | gust knots | rain 1hr in | rain 24hr in | rain mn in | humidity % | barometer mb |
| 20260902110527 | 65 | 304 | 0.0 | 0.0 | 0.00 | 0.00 | 0.00 | 85 | 1013.8 |
| 20260902105020 | 65 | 302 | 0.0 | 0.0 | 0.00 | 0.00 | 0.00 | 85 | 1014.0 |
| 20260902103518 | 65 | 302 | 0.0 | 0.0 | 0.00 | 0.00 | 0.00 | 85 | 1014.1 |
| 20260902102018 | 65 | 302 | 0.0 | 0.0 | 0.00 | 0.00 | 0.00 | 85 | 1014.2 |
| 20260902100529 | 65 | 302 | 0.0 | 0.0 | 0.00 | 0.00 | 0.00 | 86 | 1014.2 |
| 20260902095025 | 64 | 302 | 0.0 | 0.0 | 0.00 | 0.00 | 0.00 | 85 | 1014.3 |
| 20260902093529 | 64 | 302 | 0.0 | 0.0 | 0.00 | 0.00 | 0.00 | 85 | 1014.3 |
| 20260902092022 | 64 | 302 | 0.0 | 0.0 | 0.00 | 0.00 | 0.00 | 85 | 1014.4 |
| 20260902090523 | 65 | 302 | 0.0 | 0.0 | 0.00 | 0.00 | 0.00 | 85 | 1014.4 |
| 20260902085043 | 65 | 302 | 0.0 | 0.0 | 0.00 | 0.00 | 0.00 | 85 | 1014.5 |
| 20260902083556 | 64 | 302 | 0.0 | 0.0 | 0.00 | 0.00 | 0.00 | 85 | 1014.7 |
| 20260902082033 | 65 | 302 | 0.0 | 0.0 | 0.00 | 0.00 | 0.00 | 84 | 1014.7 |
| 20260902080535 | 65 | 302 | 0.0 | 0.0 | 0.00 | 0.00 | 0.00 | 84 | 1014.6 |
| 20260902075033 | 65 | 302 | 0.0 | 0.0 | 0.00 | 0.00 | 0.00 | 84 | 1014.6 |
| 20260902073554 | 65 | 302 | 0.0 | 0.0 | 0.00 | 0.00 | 0.00 | 84 | 1014.6 |
| 20260902072030 | 66 | 302 | 0.0 | 0.0 | 0.00 | 0.00 | 0.00 | 84 | 1014.5 |
| 20260902070543 | 66 | 302 | 0.0 | 0.0 | 0.00 | 0.00 | 0.00 | 83 | 1014.3 |
| 20260902065031 | 66 | 302 | 0.0 | 0.0 | 0.00 | 0.00 | 0.00 | 83 | 1014.2 |
| 20260902063516 | 66 | 302 | 0.0 | 0.0 | 0.00 | 0.00 | 0.00 | 83 | 1014.3 |
| 20260902062051 | 66 | 302 | 0.0 | 0.0 | 0.00 | 0.00 | 0.00 | 83 | 1014.2 |
| 20260902060534 | 67 | 302 | 0.0 | 0.0 | 0.00 | 0.00 | 0.00 | 83 | 1014.1 |
| 20260902055016 | 67 | 302 | 0.0 | 0.0 | 0.00 | 0.00 | 0.00 | 83 | 1014.0 |
| 20260902053518 | 67 | 302 | 0.0 | 0.0 | 0.00 | 0.00 | 0.00 | 82 | 1014.0 |
| 20260902052037 | 67 | 302 | 0.0 | 3.5 | 0.00 | 0.00 | 0.00 | 82 | 1014.1 |
| 20260902050536 | 67 | 305 | 0.0 | 0.0 | 0.00 | 0.00 | 0.00 | 81 | 1013.9 |
| 20260902045015 | 68 | 304 | 0.0 | 0.0 | 0.00 | 0.00 | 0.00 | 80 | 1013.9 |
| 20260902043517 | 68 | 306 | 0.0 | 0.0 | 0.00 | 0.00 | 0.00 | 80 | 1013.8 |
| 20260902042016 | 68 | 306 | 0.9 | 4.3 | 0.00 | 0.00 | 0.00 | 79 | 1013.7 |
| 20260902040543 | 68 | 311 | 0.0 | 0.0 | 0.00 | 0.00 | 0.00 | 78 | 1013.3 |
| 20260902035021 | 68 | 310 | 0.0 | 0.0 | 0.00 | 0.00 | 0.00 | 77 | 1013.2 |
| 20260902033523 | 69 | 310 | 0.0 | 0.0 | 0.00 | 0.00 | 0.00 | 76 | 1012.8 |
| 20260902032023 | 69 | 305 | 0.0 | 3.5 | 0.00 | 0.00 | 0.00 | 75 | 1012.5 |
| 20260902030517 | 70 | 299 | 0.0 | 3.5 | 0.00 | 0.00 | 0.00 | 73 | 1012.3 |
| 20260902025015 | 71 | 330 | 0.0 | 0.0 | 0.00 | 0.00 | 0.00 | 72 | 1012.4 |
| 20260902023520 | 71 | 326 | 0.0 | 4.3 | 0.00 | 0.00 | 0.00 | 71 | 1012.2 |
| 20260902022021 | 73 | 325 | 0.9 | 4.3 | 0.00 | 0.00 | 0.00 | 70 | 1012.1 |
| 20260902020527 | 74 | 276 | 3.5 | 8.7 | 0.00 | 0.00 | 0.00 | 68 | 1011.9 |
| 20260902015034 | 75 | 283 | 0.9 | 7.8 | 0.00 | 0.00 | 0.00 | 66 | 1012.1 |
| 20260902013534 | 76 | 290 | 3.5 | 7.8 | 0.00 | 0.00 | 0.00 | 64 | 1011.9 |
| 20260902012014 | 76 | 294 | 0.0 | 7.8 | 0.00 | 0.00 | 0.00 | 63 | 1012.0 |
| 20260902010534 | 77 | 266 | 1.7 | 9.6 | 0.00 | 0.00 | 0.00 | 61 | 1012.1 |
| 20260902005014 | 78 | 272 | 4.3 | 10.4 | 0.00 | 0.00 | 0.00 | 60 | 1012.2 |
| 20260902003533 | 78 | 293 | 0.9 | 8.7 | 0.00 | 0.00 | 0.00 | 59 | 1012.2 |
| 20260902002031 | 79 | 286 | 1.7 | 7.0 | 0.00 | 0.00 | 0.00 | 58 | 1012.2 |
| 20260902000530 | 78 | 284 | 4.3 | 9.6 | 0.00 | 0.00 | 0.00 | 58 | 1012.2 |
| 20260901235027 | 79 | 267 | 1.7 | 10.4 | 0.00 | 0.00 | 0.00 | 55 | 1012.4 |
| 20260901233531 | 80 | 301 | 2.6 | 11.3 | 0.00 | 0.00 | 0.00 | 55 | 1012.3 |
| 20260901232031 | 80 | 284 | 2.6 | 10.4 | 0.00 | 0.00 | 0.00 | 53 | 1012.4 |
| 20260901230530 | 81 | 286 | 1.7 | 10.4 | 0.00 | 0.00 | 0.00 | 53 | 1012.4 |
| 20260901225027 | 81 | 247 | 3.5 | 12.2 | 0.00 | 0.00 | 0.00 | 55 | 1012.4 |
| 20260901223549 | 83 | 292 | 4.3 | 12.2 | 0.00 | 0.00 | 0.00 | 56 | 1012.4 |
| 20260901222026 | 83 | 268 | 6.1 | 11.3 | 0.00 | 0.00 | 0.00 | 55 | 1012.4 |
| 20260901220527 | 83 | 276 | 5.2 | 12.2 | 0.00 | 0.00 | 0.00 | 56 | 1012.5 |
| 20260901215024 | 83 | 267 | 5.2 | 12.2 | 0.00 | 0.00 | 0.00 | 55 | 1012.6 |
| 20260901213525 | 83 | 296 | 5.2 | 12.2 | 0.00 | 0.00 | 0.00 | 53 | 1012.6 |
| 20260901212017 | 84 | 265 | 4.3 | 10.4 | 0.00 | 0.00 | 0.00 | 53 | 1012.8 |
| 20260901210518 | 84 | 281 | 3.5 | 11.3 | 0.00 | 0.00 | 0.00 | 55 | 1013.0 |
| 20260901205018 | 84 | 257 | 0.9 | 10.4 | 0.00 | 0.00 | 0.00 | 56 | 1012.8 |
| 20260901203519 | 84 | 302 | 0.9 | 13.0 | 0.00 | 0.00 | 0.00 | 56 | 1013.0 |
| 20260901202017 | 83 | 288 | 4.3 | 11.3 | 0.00 | 0.00 | 0.00 | 56 | 1013.0 |
| 20260901200520 | 84 | 304 | 3.5 | 11.3 | 0.00 | 0.00 | 0.00 | 55 | 1013.1 |
| 20260901195020 | 84 | 299 | 4.3 | 11.3 | 0.00 | 0.00 | 0.00 | 54 | 1013.2 |
| 20260901193523 | 84 | 275 | 1.7 | 10.4 | 0.00 | 0.00 | 0.00 | 52 | 1013.3 |
| 20260901192019 | 84 | 271 | 1.7 | 6.1 | 0.00 | 0.00 | 0.00 | 49 | 1013.4 |
| 20260901190545 | 83 | 269 | 0.0 | 7.8 | 0.00 | 0.00 | 0.00 | 51 | 1013.5 |
| 20260901185019 | 83 | 254 | 0.0 | 6.1 | 0.00 | 0.00 | 0.00 | 55 | 1013.6 |
| 20260901183518 | 81 | 315 | 0.0 | 4.3 | 0.00 | 0.00 | 0.00 | 53 | 1013.8 |
| 20260901182031 | 81 | 279 | 0.0 | 0.0 | 0.00 | 0.00 | 0.00 | 56 | 1014.0 |
| 20260901180525 | 79 | 281 | 0.0 | 0.0 | 0.00 | 0.00 | 0.00 | 58 | 1014.0 |
| 20260901175017 | 78 | 290 | 0.0 | 0.0 | 0.00 | 0.00 | 0.00 | 63 | 1014.1 |
| 20260901173535 | 77 | 292 | 0.0 | 0.0 | 0.00 | 0.00 | 0.00 | 66 | 1014.2 |
| 20260901172022 | 75 | 290 | 0.0 | 0.0 | 0.00 | 0.00 | 0.00 | 70 | 1014.1 |
| 20260901170532 | 74 | 317 | 0.0 | 0.0 | 0.00 | 0.00 | 0.00 | 72 | 1014.1 |
| 20260901165032 | 73 | 314 | 0.0 | 0.0 | 0.00 | 0.00 | 0.00 | 73 | 1014.1 |
| 20260901163523 | 72 | 306 | 0.0 | 0.0 | 0.00 | 0.00 | 0.00 | 75 | 1013.9 |
| 20260901162032 | 71 | 284 | 0.0 | 0.0 | 0.00 | 0.00 | 0.00 | 78 | 1013.9 |
| 20260901160523 | 70 | 307 | 0.0 | 0.0 | 0.00 | 0.00 | 0.00 | 79 | 1013.7 |
| 20260901153527 | 68 | 286 | 0.0 | 0.0 | 0.00 | 0.00 | 0.00 | 85 | 1013.6 |
| 20260901152041 | 67 | 286 | 0.0 | 0.0 | 0.00 | 0.00 | 0.00 | 86 | 1013.3 |
| 20260901150531 | 66 | 286 | 0.0 | 0.0 | 0.00 | 0.00 | 0.00 | 87 | 1013.4 |
| 20260901145024 | 66 | 286 | 0.0 | 0.0 | 0.00 | 0.00 | 0.00 | 87 | 1013.4 |
| 20260901143525 | 65 | 286 | 0.0 | 0.0 | 0.00 | 0.00 | 0.00 | 88 | 1013.4 |
| 20260901142041 | 65 | 286 | 0.0 | 0.0 | 0.00 | 0.00 | 0.00 | 88 | 1013.1 |
| 20260901140519 | 64 | 286 | 0.0 | 0.0 | 0.00 | 0.00 | 0.00 | 88 | 1013.0 |
| 20260901135030 | 64 | 286 | 0.0 | 0.0 | 0.00 | 0.00 | 0.00 | 88 | 1013.0 |
| 20260901133555 | 64 | 286 | 0.0 | 0.0 | 0.00 | 0.00 | 0.00 | 88 | 1012.9 |
| 20260901132028 | 64 | 286 | 0.0 | 0.0 | 0.00 | 0.00 | 0.00 | 88 | 1012.7 |
| 20260901130527 | 64 | 286 | 0.0 | 0.0 | 0.00 | 0.00 | 0.00 | 87 | 1012.5 |
| 20260901125053 | 64 | 286 | 0.0 | 0.0 | 0.00 | 0.00 | 0.00 | 87 | 1012.6 |
| 20260901123518 | 65 | 286 | 0.0 | 0.0 | 0.00 | 0.00 | 0.00 | 87 | 1012.5 |
| 20260901122017 | 65 | 286 | 0.0 | 0.0 | 0.00 | 0.00 | 0.00 | 87 | 1012.6 |
| 20260901120530 | 65 | 286 | 0.0 | 0.0 | 0.00 | 0.00 | 0.00 | 87 | 1012.5 |
| 20260901115027 | 65 | 286 | 0.0 | 0.0 | 0.00 | 0.00 | 0.00 | 87 | 1012.5 |
| 20260901113529 | 65 | 286 | 0.0 | 0.0 | 0.00 | 0.00 | 0.00 | 87 | 1012.4 |
| 20260901112030 | 65 | 286 | 0.0 | 0.0 | 0.00 | 0.00 | 0.00 | 87 | 1012.5 |